N5PLO-10 Weather Reports


time (UTC)temp
C
wind
direction
speed
KPH
gust
KPH
rain 1hr
cm
rain 24hr
cm
rain mn
cm
humidity
%
barometer
mb
20260505201117 29 250 1.6 4.8 0.00 0.00 0.00 76 1013.2
20260505200615 29 253 0.0 4.8 0.00 0.00 0.00 77 1013.4
20260505200112 29 147 3.2 11.3 0.00 0.00 0.00 77 1013.6
20260505195608 29 214 1.6 3.2 0.00 0.00 0.00 77 1013.5
20260505195106 28 253 1.6 3.2 0.00 0.00 0.00 78 1013.5
20260505194603 29 212 0.0 1.6 0.00 0.00 0.00 78 1013.8
20260505194058 29 249 3.2 3.2 0.00 0.00 0.00 77 1013.7
20260505193555 29 270 1.6 3.2 0.00 0.00 0.00 78 1013.5
20260505193052 28 305 1.6 1.6 0.00 0.00 0.00 79 1013.4
20260505192551 28 61 1.6 3.2 0.00 0.00 0.00 78 1013.8
20260505192048 28 260 1.6 4.8 0.00 0.00 0.00 79 1013.9
20260505191546 28 233 0.0 1.6 0.00 0.00 0.00 79 1013.9
20260505191044 27 264 0.0 1.6 0.00 0.00 0.00 80 1014.0
20260505190538 27 273 1.6 1.6 0.00 0.00 0.00 80 1013.8
20260505190035 27 253 0.0 3.2 0.00 0.00 0.00 81 1013.9
20260505185531 28 281 1.6 3.2 0.00 0.00 0.00 80 1013.9
20260505185028 28 250 1.6 4.8 0.00 0.00 0.00 79 1013.9
20260505184524 28 189 0.0 3.2 0.00 0.00 0.00 78 1013.7
20260505184021 28 205 1.6 3.2 0.00 0.00 0.00 79 1013.8
20260505183518 28 308 1.6 1.6 0.00 0.00 0.00 79 1013.8
20260505183016 28 16 3.2 4.8 0.00 0.00 0.00 79 1014.0
20260505182512 28 346 1.6 3.2 0.00 0.00 0.00 79 1013.9
20260505182009 28 265 0.0 3.2 0.00 0.00 0.00 80 1014.0
20260505181505 28 249 4.8 8.0 0.00 0.00 0.00 79 1014.0
20260505181003 27 200 0.0 3.2 0.00 0.00 0.00 81 1013.9
20260505180458 27 219 0.0 1.6 0.00 0.00 0.00 81 1013.8
20260505175956 27 251 0.0 3.2 0.00 0.00 0.00 81 1013.9
20260505175451 27 342 0.0 1.6 0.00 0.00 0.00 82 1013.7
20260505174948 27 270 0.0 1.6 0.00 0.00 0.00 83 1014.0
20260505174445 27 234 0.0 1.6 0.00 0.00 0.00 83 1013.9
20260505173941 27 267 1.6 3.2 0.00 0.00 0.00 83 1014.1
20260505173438 27 240 0.0 3.2 0.00 0.00 0.00 83 1014.0
20260505172935 27 223 1.6 3.2 0.00 0.00 0.00 83 1014.2
20260505172434 27 248 1.6 3.2 0.00 0.00 0.00 82 1014.0
20260505171932 27 244 0.0 1.6 0.00 0.00 0.00 84 1014.2
20260505171430 26 261 0.0 3.2 0.00 0.00 0.00 85 1014.0
20260505170926 26 255 0.0 1.6 0.00 0.00 0.00 84 1014.2
20260505170423 26 255 1.6 1.6 0.00 0.00 0.00 84 1014.2
20260505165919 26 66 1.6 3.2 0.00 0.00 0.00 84 1014.2
20260505165415 26 236 0.0 0.0 0.00 0.00 0.00 85 1014.2
20260505164910 26 280 1.6 3.2 0.00 0.00 0.00 86 1014.2
20260505164407 26 239 0.0 1.6 0.00 0.00 0.00 87 1014.4
20260505163905 26 239 1.6 1.6 0.00 0.00 0.00 87 1014.3
20260505163404 26 239 0.0 1.6 0.00 0.00 0.00 87 1014.2
20260505162902 26 231 0.0 1.6 0.00 0.00 0.00 86 1014.4
20260505162358 26 239 0.0 1.6 0.00 0.00 0.00 86 1014.3
20260505161855 26 210 1.6 1.6 0.00 0.00 0.00 86 1013.9
20260505161351 26 209 0.0 1.6 0.00 0.00 0.00 86 1014.0
20260505160849 25 230 0.0 1.6 0.00 0.00 0.00 87 1014.0
20260505160347 25 212 1.6 3.2 0.00 0.00 0.00 87 1014.0
20260505153326 25 281 0.0 1.6 0.00 0.00 0.00 87 1013.7
20260505152823 25 265 0.0 1.6 0.00 0.00 0.00 86 1013.8
20260505152320 25 255 0.0 4.8 0.00 0.00 0.00 86 1013.8
20260505151814 25 271 0.0 1.6 0.00 0.00 0.00 86 1013.7
20260505151311 25 281 1.6 3.2 0.00 0.00 0.00 86 1013.6
20260505150808 25 282 0.0 1.6 0.00 0.00 0.00 87 1013.5
20260505150305 25 247 0.0 3.2 0.00 0.00 0.00 87 1013.7
20260505140229 25 232 1.6 4.8 0.00 0.00 0.00 88 1013.0
20260505130153 23 239 0.0 1.6 0.00 0.00 0.00 92 1013.0
20260505124643 23 229 1.6 1.6 0.00 0.00 0.00 93 1012.5
20260505124139 22 300 0.0 1.6 0.00 0.00 0.00 93 1012.8
20260505123630 22 252 0.0 1.6 0.00 0.00 0.00 94 1013.1
20260505123127 22 285 0.0 0.0 0.00 0.00 0.00 94 1012.9
20260505122623 22 288 0.0 0.0 0.00 0.00 0.00 94 1013.0
20260505122120 22 110 4.8 8.0 0.00 0.00 0.00 95 1013.2
20260505121611 22 246 0.0 0.0 0.00 0.00 0.00 95 1012.8
20260505121108 22 236 0.0 0.0 0.00 0.00 0.00 95 1012.8
20260505120604 22 252 0.0 0.0 0.00 0.00 0.00 95 1012.5
20260505120100 22 254 0.0 0.0 0.00 0.00 0.00 95 1012.6
20260505115554 22 244 0.0 1.6 0.00 0.00 0.00 95 1012.6
20260505115052 22 255 0.0 0.0 0.00 0.00 0.00 95 1012.4
20260505114549 22 263 0.0 1.6 0.00 0.00 0.00 95 1012.4
20260505114045 22 236 0.0 1.6 0.00 0.00 0.00 95 1012.9
20260505113542 22 271 0.0 0.0 0.00 0.00 0.00 95 1012.8
20260505113038 22 265 0.0 0.0 0.00 0.00 0.00 95 1012.6
20260505112534 22 261 0.0 1.6 0.00 0.00 0.00 94 1012.7
20260505112032 22 273 0.0 0.0 0.00 0.00 0.00 94 1012.7
20260505111526 22 267 0.0 3.2 0.00 0.00 0.00 94 1012.6
20260505111023 22 216 0.0 0.0 0.00 0.00 0.00 94 1012.8
20260505110519 22 221 0.0 1.6 0.00 0.00 0.00 94 1012.5
20260505101946 21 239 0.0 0.0 0.00 0.00 0.00 95 1012.6
20260505101444 21 268 0.0 0.0 0.00 0.00 0.00 95 1012.5
20260505100940 21 268 0.0 0.0 0.00 0.00 0.00 94 1012.8
20260505100438 21 268 0.0 0.0 0.00 0.00 0.00 94 1012.9
20260505095933 21 268 0.0 0.0 0.00 0.00 0.00 94 1012.9
20260505095430 21 270 0.0 0.0 0.00 0.00 0.00 94 1013.0
20260505094926 21 254 0.0 0.0 0.00 0.00 0.00 94 1012.8
20260505094424 21 254 0.0 0.0 0.00 0.00 0.00 94 1012.7
20260505093920 21 255 0.0 0.0 0.00 0.00 0.00 94 1012.8
20260505093417 21 255 0.0 1.6 0.00 0.00 0.00 94 1012.9
20260505092914 21 263 0.0 0.0 0.00 0.00 0.00 94 1013.1
20260505092412 21 264 0.0 0.0 0.00 0.00 0.00 94 1012.9
20260505091909 21 264 0.0 0.0 0.00 0.00 0.00 94 1013.0
20260505091406 21 265 0.0 0.0 0.00 0.00 0.00 94 1012.9
20260505090904 21 266 0.0 0.0 0.00 0.00 0.00 94 1013.0
20260505090402 21 271 0.0 0.0 0.00 0.00 0.00 94 1012.8
20260505085859 21 272 0.0 1.6 0.00 0.00 0.00 94 1012.8
20260505085357 21 301 0.0 0.0 0.00 0.00 0.00 94 1013.2
20260505084855 21 255 0.0 0.0 0.00 0.00 0.00 94 1013.1
20260505084353 21 248 0.0 0.0 0.00 0.00 0.00 93 1013.1
20260505083850 21 76 0.0 0.0 0.00 0.00 0.00 93 1013.0
20260505083348 21 217 0.0 0.0 0.00 0.00 0.00 93 1013.2
20260505082844 21 232 0.0 0.0 0.00 0.00 0.00 93 1013.4
20260505082340 21 233 0.0 0.0 0.00 0.00 0.00 93 1013.5
20260505081837 21 232 0.0 0.0 0.00 0.00 0.00 92 1013.5
20260505081333 21 240 0.0 1.6 0.00 0.00 0.00 92 1013.4
20260505080830 21 253 0.0 0.0 0.00 0.00 0.00 92 1013.5
20260505080326 21 253 0.0 0.0 0.00 0.00 0.00 92 1013.6
20260505075822 21 253 0.0 0.0 0.00 0.00 0.00 92 1013.6
20260505075319 21 253 0.0 0.0 0.00 0.00 0.00 91 1013.5
20260505074816 21 254 0.0 0.0 0.00 0.00 0.00 91 1013.6
20260505074313 21 253 0.0 3.2 0.00 0.00 0.00 91 1013.5
20260505073811 21 265 0.0 4.8 0.00 0.00 0.00 91 1013.6
20260505073309 21 274 0.0 1.6 0.00 0.00 0.00 91 1013.8
20260505072805 21 227 0.0 0.0 0.00 0.00 0.00 91 1013.8
20260505072301 21 230 0.0 0.0 0.00 0.00 0.00 90 1013.7
20260505071757 21 237 0.0 0.0 0.00 0.00 0.00 90 1013.9
20260505071254 21 260 0.0 0.0 0.00 0.00 0.00 90 1013.8
20260505070752 21 293 0.0 1.6 0.00 0.00 0.00 90 1014.3
20260505070248 21 226 0.0 1.6 0.00 0.00 0.00 90 1014.0
20260505065743 21 259 0.0 0.0 0.00 0.00 0.00 90 1014.1
20260505065240 21 273 0.0 0.0 0.00 0.00 0.00 89 1014.2
20260505064737 21 255 1.6 1.6 0.00 0.00 0.00 89 1014.2
20260505064235 21 237 0.0 1.6 0.00 0.00 0.00 89 1014.4
20260505063732 21 247 0.0 1.6 0.00 0.00 0.00 89 1014.4
20260505063229 21 225 0.0 0.0 0.00 0.00 0.00 89 1014.5
20260505062725 21 230 0.0 1.6 0.00 0.00 0.00 89 1014.5
20260505062223 21 234 0.0 0.0 0.00 0.00 0.00 89 1014.5
20260505061720 21 235 0.0 1.6 0.00 0.00 0.00 88 1014.6
20260505061218 21 268 0.0 1.6 0.00 0.00 0.00 88 1014.6
20260505060715 21 259 0.0 0.0 0.00 0.00 0.00 88 1014.9
20260505060212 21 254 0.0 0.0 0.00 0.00 0.00 88 1014.7
20260505055707 21 300 0.0 1.6 0.00 0.00 0.00 88 1014.7
20260505055203 21 268 0.0 1.6 0.00 0.00 0.00 88 1014.6
20260505054701 21 232 0.0 1.6 0.00 0.00 0.00 88 1014.8
20260505054159 21 262 0.0 0.0 0.00 0.00 0.00 87 1015.0
20260505053656 21 220 0.0 0.0 0.00 0.00 0.00 87 1014.9
20260505053153 21 232 0.0 1.6 0.00 0.00 0.00 87 1015.0
20260505052650 21 229 0.0 1.6 0.00 0.00 0.00 87 1015.2
20260505052147 21 230 0.0 0.0 0.00 0.00 0.00 86 1015.4
20260505051643 21 232 0.0 1.6 0.00 0.00 0.00 86 1015.3
20260505051142 21 224 0.0 1.6 0.00 0.00 0.00 86 1015.5
20260505050639 21 238 0.0 0.0 0.00 0.00 0.00 86 1015.3
20260505050138 21 239 0.0 1.6 0.00 0.00 0.00 85 1015.3
20260505041607 22 265 0.0 3.2 0.00 0.03 0.03 82 1015.5
20260505041105 22 242 0.0 1.6 0.00 0.03 0.03 81 1015.5
20260505040602 22 197 1.6 1.6 0.00 0.03 0.03 81 1015.5
20260505040059 22 225 0.0 3.2 0.00 0.03 0.03 80 1015.9
20260505035555 22 211 3.2 3.2 0.00 0.03 0.03 80 1015.6
20260505035051 22 223 1.6 1.6 0.00 0.03 0.03 80 1015.7
20260505034548 22 228 3.2 4.8 0.00 0.03 0.03 80 1015.8
20260505034045 22 234 1.6 3.2 0.00 0.03 0.03 80 1015.8
20260505033542 22 254 1.6 3.2 0.00 0.03 0.03 80 1016.2
20260505033040 22 258 0.0 1.6 0.00 0.03 0.03 80 1016.2
20260505032538 22 206 1.6 3.2 0.00 0.03 0.03 80 1015.9
20260505032034 22 295 3.2 3.2 0.00 0.03 0.03 80 1016.1
20260505031531 22 232 1.6 3.2 0.00 0.03 0.03 80 1016.0
20260505031027 22 216 1.6 3.2 0.00 0.03 0.03 80 1016.0
20260505030525 22 278 0.0 1.6 0.00 0.03 0.03 80 1016.1
20260505030021 22 233 1.6 4.8 0.00 0.03 0.03 80 1015.8
20260505025517 23 223 1.6 1.6 0.00 0.03 0.03 80 1015.7
20260505025016 23 214 0.0 3.2 0.00 0.03 0.03 79 1016.0
20260505024512 23 255 1.6 3.2 0.00 0.03 0.03 79 1015.9
20260505024009 23 0 1.6 1.6 0.00 0.03 0.03 79 1015.8
20260505023506 23 224 1.6 8.0 0.00 0.03 0.03 79 1016.3
20260505023004 23 273 0.0 0.0 0.00 0.03 0.03 79 1016.1
20260505022502 23 220 0.0 1.6 0.00 0.03 0.03 79 1016.2
20260505021958 23 158 3.2 3.2 0.00 0.03 0.03 79 1016.0
20260505021455 23 244 1.6 3.2 0.00 0.03 0.03 78 1016.0
20260505020950 23 67 1.6 3.2 0.00 0.03 0.03 78 1015.9
20260505020446 23 224 1.6 1.6 0.00 0.03 0.03 78 1016.0
20260505015943 23 266 1.6 8.0 0.00 0.03 0.03 77 1015.8
20260505015440 23 76 0.0 3.2 0.00 0.03 0.03 77 1016.1
20260505014937 23 147 3.2 9.7 0.00 0.03 0.03 76 1015.8
20260505014434 23 280 0.0 3.2 0.00 0.03 0.03 76 1015.9
20260505013931 23 216 0.0 1.6 0.00 0.03 0.03 76 1015.9
20260505013428 23 169 1.6 3.2 0.00 0.03 0.03 76 1015.9
20260505012926 23 21 1.6 1.6 0.00 0.03 0.03 76 1015.8
20260505012424 23 223 0.0 1.6 0.00 0.03 0.03 76 1015.7
20260505011920 23 220 0.0 4.8 0.00 0.03 0.03 76 1015.7
20260505011416 23 357 1.6 3.2 0.00 0.03 0.03 76 1015.8
20260505010913 23 236 3.2 3.2 0.00 0.03 0.03 76 1015.9
20260505010409 23 230 0.0 3.2 0.00 0.03 0.03 76 1015.8
20260505005905 23 234 0.0 1.6 0.00 0.03 0.03 75 1016.0
20260505005402 24 268 0.0 1.6 0.00 0.03 0.03 74 1015.7
20260505004859 24 247 0.0 3.2 0.00 0.03 0.03 74 1015.8
20260505004356 24 277 0.0 1.6 0.00 0.03 0.03 73 1015.8
20260505003853 24 267 0.0 1.6 0.00 0.03 0.03 72 1015.6
20260505003350 25 242 0.0 3.2 0.00 0.03 0.03 71 1015.7
20260505002846 25 235 0.0 1.6 0.00 0.03 0.03 71 1015.8
20260505002343 25 215 0.0 3.2 0.00 0.03 0.03 70 1015.8
20260505001842 25 264 0.0 3.2 0.00 0.03 0.03 71 1016.0
20260505001338 25 246 1.6 4.8 0.00 0.03 0.03 71 1016.0
20260505000835 25 252 0.0 1.6 0.00 0.03 0.03 71 1016.1
20260505000333 25 243 0.0 1.6 0.00 0.03 0.03 71 1016.0
20260504235830 25 275 3.2 3.2 0.00 0.03 0.03 70 1016.3
20260504235327 25 250 0.0 1.6 0.00 0.03 0.03 70 1016.0
20260504234823 25 235 0.0 1.6 0.00 0.03 0.03 70 1016.1
20260504234321 25 214 1.6 3.2 0.00 0.03 0.03 69 1016.1
20260504233817 25 231 1.6 1.6 0.00 0.03 0.03 69 1016.2
20260504233313 25 166 1.6 9.7 0.00 0.03 0.03 69 1016.2
20260504232810 26 270 1.6 4.8 0.00 0.03 0.03 68 1016.3
20260504232307 26 229 0.0 0.0 0.00 0.03 0.03 67 1016.3
20260504231804 26 285 0.0 4.8 0.00 0.03 0.03 67 1016.5
20260504231300 26 240 0.0 1.6 0.00 0.03 0.03 67 1016.5
20260504230756 26 226 3.2 3.2 0.00 0.03 0.03 66 1016.5
20260504230254 26 233 1.6 3.2 0.00 0.03 0.03 66 1016.8
20260504225753 26 221 3.2 3.2 0.00 0.03 0.03 65 1016.5
20260504225249 26 217 1.6 4.8 0.00 0.03 0.03 65 1016.5
20260504224746 26 143 4.8 11.3 0.00 0.03 0.03 64 1016.6
20260504224243 26 234 3.2 3.2 0.00 0.03 0.03 63 1016.6
20260504223740 27 192 1.6 3.2 0.00 0.03 0.03 63 1016.8
20260504223235 27 229 1.6 3.2 0.00 0.03 0.03 62 1017.0
20260504222733 27 295 1.6 1.6 0.00 0.03 0.03 60 1016.9
20260504222229 27 51 1.6 4.8 0.00 0.03 0.03 61 1017.0
20260504221727 27 261 0.0 1.6 0.00 0.03 0.03 60 1017.1
20260504221224 27 277 1.6 1.6 0.00 0.03 0.03 60 1017.0
20260504220720 27 332 0.0 1.6 0.00 0.03 0.03 59 1016.9
20260504220218 27 227 1.6 1.6 0.00 0.03 0.03 59 1017.1
20260504215714 27 284 3.2 3.2 0.00 0.03 0.03 59 1017.3
20260504215212 27 198 1.6 3.2 0.00 0.03 0.03 58 1017.1
20260504214707 27 276 1.6 3.2 0.00 0.03 0.03 59 1017.3
20260504214204 28 249 3.2 4.8 0.00 0.03 0.03 58 1017.2
20260504213701 28 92 1.6 3.2 0.00 0.03 0.03 57 1017.2
20260504213157 28 133 1.6 3.2 0.00 0.03 0.03 57 1017.2
20260504212654 28 262 1.6 1.6 0.00 0.03 0.03 58 1017.3
20260504212150 28 209 1.6 3.2 0.00 0.03 0.03 56 1017.4
20260504211648 29 356 3.2 4.8 0.00 0.03 0.03 55 1017.4
20260504211144 30 276 1.6 3.2 0.00 0.03 0.03 54 1017.4
20260504210642 28 0 0.0 1.6 0.00 0.03 0.03 54 1017.5
20260504210138 29 243 1.6 3.2 0.00 0.03 0.03 55 1017.8
20260504205636 29 70 1.6 3.2 0.00 0.03 0.03 53 1017.5
20260504205133 28 304 1.6 1.6 0.00 0.03 0.03 57 1017.9
20260504204632 28 273 1.6 3.2 0.00 0.03 0.03 55 1018.0
20260504204130 28 271 1.6 1.6 0.00 0.03 0.03 56 1018.0
20260504203628 28 243 0.0 3.2 0.00 0.03 0.03 58 1018.0
20260504203125 28 255 1.6 1.6 0.00 0.03 0.03 54 1018.1
20260504202620 28 284 0.0 4.8 0.00 0.03 0.03 56 1018.1
20260504202117 28 260 1.6 4.8 0.00 0.03 0.03 56 1018.4
20260504201614 28 225 1.6 1.6 0.00 0.03 0.03 54 1018.3